This is the latest recevied weather packets stored in our database for station/object ZS1OSS-13. If no packets are shown the sender has not sent any weather packets the latest 10 day(s).
| Time | Temp. | Humidity | Pressure | Rain* | Wind** | Luminosity | Snow |
|---|---|---|---|---|---|---|---|
| 1777997323 | 16.11° C | 72% | 1015.3 hPa | 0 mm | - | 0 W/m² | - |
| 1777997021 | 16.11° C | 71% | 1015.4 hPa | 0 mm | - | 1 W/m² | - |
| 1777996717 | 16.67° C | 70% | 1015.4 hPa | 0 mm | - | 3 W/m² | - |
| 1777995502 | 17.22° C | 68% | 1015 hPa | 0 mm | - | 16 W/m² | - |
| 1777995200 | 17.22° C | 67% | 1015.1 hPa | 0 mm | - | 23 W/m² | - |
| 1777994896 | 17.78° C | 66% | 1014.9 hPa | 0 mm | - | 27 W/m² | - |
| 1777994594 | 17.78° C | 66% | 1014.8 hPa | 0 mm | - | 31 W/m² | - |
| 1777994288 | 17.78° C | 65% | 1014.6 hPa | 0 mm | - | 35 W/m² | - |
| 1777993985 | 17.78° C | 64% | 1015 hPa | 0 mm | - | 39 W/m² | - |
| 1777993682 | 17.78° C | 64% | 1015 hPa | 0 mm | - | 42 W/m² | - |
| 1777993073 | 18.33° C | 63% | 1014.8 hPa | 0 mm | - | 78 W/m² | - |
| 1777992772 | 18.33° C | 62% | 1014.8 hPa | 0 mm | - | 85 W/m² | - |
| 1777992469 | 17.78° C | 63% | 1014.7 hPa | 0 mm | - | 103 W/m² | - |
| 1777992168 | 17.78° C | 63% | 1014.7 hPa | 0 mm | - | 49 W/m² | - |
| 1777991864 | 17.78° C | 60% | 1014.6 hPa | 0 mm | - | 50 W/m² | - |
| 1777991562 | 18.33° C | 60% | 1014.7 hPa | 0 mm | - | 53 W/m² | - |
| 1777991258 | 18.89° C | 59% | 1014.6 hPa | 0 mm | - | 64 W/m² | - |
| 1777990956 | 18.33° C | 62% | 1014.4 hPa | 0 mm | - | 185 W/m² | - |
| 1777990654 | 18.33° C | 63% | 1014.6 hPa | 0 mm | - | 83 W/m² | - |
| 1777990351 | 18.89° C | 61% | 1014.2 hPa | 0 mm | - | 94 W/m² | - |
| 1777990046 | 18.33° C | 60% | 1014.4 hPa | 0 mm | - | 265 W/m² | - |
| 1777988227 | 17.78° C | 62% | 1014.3 hPa | 0 mm | - | 280 W/m² | - |
| 1777987923 | 17.78° C | 64% | 1014 hPa | 0 mm | - | 63 W/m² | - |
| 1777987619 | 17.78° C | 64% | 1014 hPa | 0 mm | - | 55 W/m² | - |
| 1777987317 | 17.78° C | 64% | 1014 hPa | 0 mm | - | 53 W/m² | - |
* Rain latest hour (hover to see other rain measurements)
** Current wind speed in m/s (hover to see current wind gust speed)